Regional Weather Roundup
Issued by NWS

Home | Current Version | Previous Version | Graphics & Text | Print | Product List | Glossary On
Versions: 1 2 3 4 5 6 7 8 9 10 11 12 13 14 15 16 17 18 19 20 21 22 23 24 25 26 27 28 29 30 31 32 33 34 35 36 37 38 39 40 41 42 43 44 45 46 47 48 49 50
000
ASUS45 KPSR 311600
RWRAZ

ARIZONA HOURLY REGIONAL WEATHER ROUNDUP
NATIONAL WEATHER SERVICE PHOENIX AZ
900 AM MST FRI JUL 31 2015

NOTE: FAIR INDICATES FEW OR NO CLOUDS BELOW 12,000 FEET WITH NO
SIGNIFICANT WEATHER AND/OR OBSTRUCTIONS TO VISIBILITY.

AZZ001>003-036-311700-
NORTHWEST ARIZONA

CITY           SKY/WX    TMP DP  RH WIND       PRES   REMARKS
KINGMAN        SUNNY     86  53  32 S7        30.16S
$$

AZZ004>008-015-016-018-311700-
NORTH CENTRAL ARIZONA

CITY           SKY/WX    TMP DP  RH WIND       PRES   REMARKS
GRAND CANYON   MOSUNNY   76  51  41 MISG      30.41F
WILLIAMS       MOSUNNY   75  50  41 CALM      30.48S
PRESCOTT       MOSUNNY   80  58  46 VRB3      30.29S
FLAGSTAFF      NOT AVBL
PAYSON         SUNNY     82  55  39 CALM      30.31S HAZE
PAGE           PTSUNNY   85  55  35 NE6       30.25S
$$

AZZ009>014-017-311700-
NORTHEAST ARIZONA

CITY           SKY/WX    TMP DP  RH WIND       PRES   REMARKS
WINSLOW        NOT AVBL
SAINT JOHNS    MOSUNNY   74  55  51 CALM      30.35S
SHOW LOW       MOSUNNY   73  55  53 S10       30.41S
$$

AZZ023-311700-
GREATER PHOENIX AREA

CITY           SKY/WX    TMP DP  RH WIND       PRES   REMARKS
PHOENIX        MOSUNNY   96  59  29 NE6       29.96S
GLENDALE       PTSUNNY   97  61  30 CALM      29.98F
LUKE AFB       SUNNY     97  61  30 NE3       29.96S
DEER VALLEY    SUNNY     94  60  32 S7        29.99S
SCOTTSDALE     SUNNY     94  59  31 S3        30.01S
MESA-GATEWAY   MOSUNNY   91  61  35 SE7       30.02S
CHANDLER       PTSUNNY   91  63  38 CALM      29.98F
$$

AZZ027-028-311700-
SOUTHWEST MARICOPA COUNTY AND PINAL COUNTY

CITY           SKY/WX    TMP DP  RH WIND       PRES   REMARKS
CASA GRANDE    MOSUNNY   91  59  33 CALM      29.99S
$$

AZZ503-504-507>509-311700-
SOUTHEAST ARIZONA

CITY           SKY/WX    TMP DP  RH WIND       PRES   REMARKS
TUCSON         PTSUNNY   87  62  43 S12       30.11F
DAVIS-MONTHAN  MOSUNNY   88  61  40 SE10      30.10S
RYAN FIELD     SUNNY     90  66  45 E6        30.11R
NOGALES        PTSUNNY   79  63  57 S9        30.21R
SIERRA VISTA   CLOUDY    77  61  57 VRB3      30.27F
SAFFORD        CLOUDY    82  60  47 E14       30.18S
$$

AZZ020-021-025-026-031-311700-
SOUTHWEST ARIZONA

CITY           SKY/WX    TMP DP  RH WIND       PRES   REMARKS
YUMA           PTSUNNY   96  64  34 CALM      29.92S
$$

CAZ031-033-041-043-047-048-061-311700-
SOUTHERN CALIFORNIA

CITY           SKY/WX    TMP DP  RH WIND       PRES   REMARKS
DOWNTOWN L.A.  CLOUDY    71  65  81 CALM      30.04R
L.A. AIRPORT   CLOUDY    69  65  86 CALM      30.05R
SAN DIEGO      CLOUDY    72  65  78 VRB5      30.05S
BURBANK        CLOUDY    72  65  78 S6        30.05S
ONTARIO        MOSUNNY   75  64  68 CALM      30.05S
RIVERSIDE      SUNNY     76  65  68 W5        30.05S
PALM SPRINGS   SUNNY     92  66  42 CALM      29.95F
EL CENTRO NAS  PTSUNNY   97  61  30 W6        29.92S
IMPERIAL       SUNNY     95  65  37 W3        29.90S
BLYTHE         SUNNY     91  67  44 CALM      29.94S
$$

NVZ020-UTZ003-311700-
SOUTHERN NEVADA-UTAH

CITY           SKY/WX    TMP DP  RH WIND       PRES   REMARKS
LAS VEGAS      NOT AVBL
SALT LAKE CITY MOSUNNY   77  35  21 E5        30.25S
$$

NMZ009-TXZ055-311700-
NEW MEXICO-WEST TEXAS

CITY           SKY/WX    TMP DP  RH WIND       PRES   REMARKS
ALBUQUERQUE    PTSUNNY   73  60  63 S8        30.38S
EL PASO        MOSUNNY   81  63  54 NE10      30.24S
$$


........................KEY........................
SKY/WX - SKY CONDITION/WEATHER
TMP    - TEMPERATURE IN FAHRENHEIT
DP     - DEW POINT IN FAHRENHEIT
RH     - RELATIVE HUMIDITY IN PERCENT
WIND   - DIRECTION AND SPEED IN MILES PER HOUR (MPH)
VRB    - VARIABLE WIND DIRECTION
PRES   - MEAN SEA LEVEL PRESSURE IN INCHES OF MERCURY
         F - FALLING PRESSURE   R - RISING PRESSURE
         S - STEADY PRESSURE
VSB    - VISIBILITY IN MILES
HX     - HEAT INDEX IN FAHRENHEIT
WCI    - WIND CHILL INDEX IN FAHRENHEIT
TC     - TEMPERATURE IN CELSIUS WHICH IS ALSO KNOWN AS
         TEMPERATURE IN CENTIGRADE
AFB    - AIR FORCE BASE
         LUKE AFB IS LUKE AIR FORCE BASE
         DAVIS-MONTHAN IS DAVIS-MONTHAN AIR FORCE BASE
NAS    - NAVAL AIR STATION
         EL CENTRO NAS IS EL CENTRO NAVAL AIR STATION
N/A    - NOT AVAILABLE




USA.gov is the U.S. government's official web portal to all federal, state and local government web resources and services.